Theta_e
276 275 275 275 274 274 274 274 276 276 276 277 277 277 277 277 277 277 277 276 277 278
274 273 273 273 273 273 274 274 275 275 275 275 275 276 276 276 276 276 276 276 276 275
273 273 273 272 272 272 272 273 273 273 274 274 274 274 274 275 275 275 275 276 275 275
272 272 271 271 271 271 272 272 272 272 272 272 272 273 273 273 273 273 273 274 274 274
271 270 270 270 270 271 270 271 271 271 271 271 271 271 270 271 271 271 270 271 272 272
269 269 269 269 269 270 270 270 270 270 269 269 269 269 269 269 270 270 271 271 271 271
268 269 268 269 269 269 269 268 268 268 268 268 268 268 268 269 269 270 270 271 272 272
268 268 268 268 268 268 268 267 267 267 266 267 267 268 268 270 271 271 272 273 273 274
267 267 266 266 266 266 266 266 265 265 266 266 267 269 272 272 271 272 272 272 273 275
265 264 265 264 264 264 264 264 264 265 265 264 265 270 272 273 272 271 272 272 273 274
264 263 263 262 262 262 263 263 263 263 263 264 266 270 271 273 272 272 272 273 274 275
263 261 261 259 261 262 262 262 261 263 263 263 263 269 272 273 271 270 271 273 275 275
262 259 258 260 259 261 260 261 263 263 263 264 264 269 272 273 271 269 270 271 273 275
260 258 258 258 259 259 259 261 260 262 264 266 267 267 271 273 271 270 270 271 272 274
Wind_Speed
4 4 5 7 7 7 8 9 12 12 13 15 15 15 15 13 13 15 14 19 16 13
3 4 6 9 8 7 9 9 13 14 15 16 16 17 17 13 16 15 15 16 17 16
3 5 6 7 9 10 11 12 13 15 15 16 16 17 17 15 16 17 14 13 18 17
4 5 5 7 8 10 12 13 14 15 16 16 17 17 16 18 19 19 19 19 19 21
3 4 6 8 9 10 12 13 14 15 16 17 18 17 18 19 19 19 20 20 21 20
3 5 7 8 9 10 12 13 14 15 16 17 18 18 18 19 19 19 19 20 20 20
4 6 7 8 9 10 12 14 14 14 16 17 18 18 19 20 19 19 19 20 20 20
5 6 6 8 9 10 12 12 13 16 16 17 16 13 18 20 20 21 20 20 20 19
3 5 7 8 10 11 12 13 13 15 17 18 12 23 28 26 19 20 20 19 19 19
3 5 7 8 10 10 12 12 14 15 16 18 19 27 29 30 18 18 19 20 19 18
3 5 7 8 9 11 11 12 14 15 17 17 16 29 30 31 19 17 18 19 20 20
2 5 7 7 9 10 11 13 13 14 16 17 17 29 31 28 17 17 19 18 17 17
1 3 5 7 10 10 10 12 12 15 16 18 17 26 31 27 13 16 15 17 17 23
2 3 5 7 8 8 10 12 12 15 14 14 16 18 30 32 16 14 14 14 14 13
Wind_Direction
246 251 268 279 283 288 296 299 303 296 286 280 280 278 276 274 271 271 266 263 261 266
274 287 290 295 296 298 305 298 295 292 288 285 283 281 281 274 273 273 270 265 263 260
285 289 294 299 304 306 292 292 292 293 292 291 289 287 283 277 275 274 270 266 263 262
277 288 303 294 291 288 291 294 294 296 295 293 290 288 287 282 281 275 275 270 268 266
274 296 294 280 285 288 294 294 297 296 296 296 292 293 290 287 284 281 278 276 274 271
279 275 274 282 289 300 299 298 298 299 298 296 293 295 290 287 285 280 276 275 272 270
255 262 274 294 297 301 301 298 300 299 297 294 294 293 294 291 284 277 271 268 268 267
250 279 294 301 308 305 300 301 305 302 297 292 293 296 298 293 290 285 282 274 267 265
273 300 317 316 308 307 306 309 305 299 301 303 298 302 300 299 291 288 285 282 274 268
312 320 316 307 307 307 308 309 307 309 307 302 299 304 308 306 295 289 282 280 278 275
317 303 308 310 316 316 314 311 312 305 297 294 301 308 309 305 298 292 292 285 277 273
289 300 320 317 314 314 310 313 306 297 297 294 292 301 311 316 307 295 289 284 283 287
311 295 304 308 308 310 308 305 303 299 290 292 294 304 315 314 312 304 298 290 284 282
319 304 288 300 302 305 307 304 299 293 296 301 305 310 310 323 315 304 296 288 285 280